FW8113 Weather Reports


time (UTC)temp
C
wind
direction
speed
KPH
gust
KPH
rain 1hr
cm
rain 24hr
cm
rain mn
cm
humidity
%
barometer
mb
20260510051627 11 108 0.0 0.0 0.00 0.00 0.00 97 1010.3
20260510051124 11 108 0.0 0.0 0.00 0.00 0.00 97 1010.3
20260510050621 11 96 0.0 0.0 0.00 0.00 0.00 97 1010.3
20260510050118 11 97 0.0 0.0 0.00 0.00 0.00 97 1010.0
20260510045615 10 114 0.0 0.0 0.00 0.00 0.00 97 1010.0
20260510045111 10 102 0.0 0.0 0.00 0.00 0.00 97 1010.3
20260510044607 10 108 0.0 0.0 0.00 0.00 0.00 97 1010.3
20260510044105 10 95 0.0 0.0 0.00 0.00 0.00 97 1010.3
20260510043600 10 105 0.0 0.0 0.00 0.00 0.00 96 1010.7
20260510043057 10 109 0.0 0.0 0.00 0.00 0.00 97 1010.7
20260510042555 10 110 0.0 0.0 0.00 0.00 0.00 97 1010.3
20260510042051 10 105 0.0 0.0 0.00 0.00 0.00 96 1010.0
20260510041548 10 99 0.0 0.0 0.00 0.00 0.00 96 1010.0
20260510041046 10 104 0.0 0.0 0.00 0.00 0.00 96 1010.0
20260510040542 11 104 0.0 0.0 0.00 0.00 0.00 96 1010.0
20260510040038 11 102 0.0 0.0 0.00 1.12 1.12 96 1010.3
20260510035535 11 112 0.0 0.0 0.00 1.12 1.12 96 1010.3
20260510035034 11 103 0.0 0.0 0.00 1.12 1.12 96 1010.3
20260510034533 11 108 0.0 0.0 0.00 1.12 1.12 96 1010.0
20260510034029 11 97 0.0 0.0 0.00 1.12 1.12 96 1010.0
20260510033525 11 102 0.0 0.0 0.00 1.12 1.12 96 1010.0
20260510033023 10 110 0.0 0.0 0.00 1.12 1.12 96 1010.0
20260510032519 11 98 0.0 0.0 0.00 1.12 1.12 96 1010.0
20260510032015 11 109 0.0 0.0 0.00 1.12 1.12 96 1010.0
20260510031510 10 99 0.0 0.0 0.00 1.12 1.12 96 1010.0
20260510031006 11 105 0.0 0.0 0.00 1.12 1.12 96 1010.0
20260510030502 11 94 0.0 0.0 0.00 1.12 1.12 96 1010.0
20260510025959 11 134 0.0 0.0 0.00 1.12 1.12 96 1010.0
20260510025456 11 105 0.0 0.0 0.00 1.12 1.12 96 1010.0
20260510024954 11 102 0.0 0.0 0.00 1.12 1.12 96 1010.3
20260510024450 11 103 0.0 0.0 0.00 1.12 1.12 96 1010.3
20260510023946 11 104 0.0 0.0 0.00 1.12 1.12 96 1010.3
20260510023443 11 103 0.0 0.0 0.00 1.12 1.12 96 1010.3
20260510022939 11 102 0.0 0.0 0.00 1.12 1.12 96 1010.0
20260510022439 11 102 0.0 0.0 0.00 1.12 1.12 96 1010.0
20260510021938 11 106 0.0 0.0 0.00 1.12 1.12 96 1010.0
20260510021436 11 104 0.0 0.0 0.00 1.12 1.12 96 1010.0
20260510020932 11 104 0.0 0.0 0.00 1.12 1.12 96 1010.0
20260510020427 11 104 0.0 0.0 0.00 1.12 1.12 96 1010.3
20260510015923 11 105 0.0 0.0 0.00 1.12 1.12 96 1010.3
20260510015419 11 96 0.0 0.0 0.00 1.12 1.12 96 1010.3
20260510014914 11 103 0.0 0.0 0.00 1.12 1.12 96 1010.3
20260510014412 11 122 0.0 3.2 0.00 1.12 1.12 96 1010.3
20260510013908 11 101 0.0 0.0 0.00 1.12 1.12 96 1010.0
20260510013403 11 109 0.0 0.0 0.00 1.12 1.12 96 1010.0
20260510012858 11 95 1.6 3.2 0.00 1.12 1.12 96 1010.0
20260510012354 11 104 0.0 0.0 0.00 1.12 1.12 96 1010.0
20260510011848 11 105 0.0 0.0 0.00 1.12 1.12 96 1010.0
20260510011344 11 107 0.0 0.0 0.00 1.12 1.12 96 1010.0
20260510010840 11 107 0.0 0.0 0.00 1.12 1.12 96 1010.0
20260510010338 11 104 0.0 0.0 0.00 1.12 1.12 96 1010.0
20260510005834 11 100 0.0 0.0 0.00 1.12 1.12 96 1010.0
20260510005331 11 107 0.0 0.0 0.00 1.12 1.12 96 1010.3
20260510004828 11 101 0.0 0.0 0.00 1.12 1.12 96 1010.0
20260510004326 11 103 0.0 0.0 0.00 1.12 1.12 96 1010.0
20260510003823 11 104 0.0 0.0 0.00 1.12 1.12 96 1010.0
20260510003320 11 103 0.0 0.0 0.00 1.12 1.12 96 1010.0
20260510002819 11 104 0.0 0.0 0.00 1.12 1.12 96 1010.0
20260510002316 11 105 0.0 0.0 0.00 1.12 1.12 96 1010.0
20260510001813 11 100 0.0 0.0 0.00 1.12 1.12 96 1009.7
20260510001311 11 103 0.0 0.0 0.00 1.12 1.12 96 1009.7
20260510000806 11 106 0.0 0.0 0.00 1.12 1.12 96 1009.7
20260510000305 11 107 0.0 0.0 0.00 1.12 1.12 96 1009.3
20260509235801 11 108 0.0 0.0 0.00 1.12 1.12 96 1009.3
20260509235258 11 107 0.0 0.0 0.00 1.12 1.12 96 1009.3
20260509234753 11 102 0.0 0.0 0.00 1.12 1.12 96 1009.3
20260509234250 11 100 0.0 0.0 0.00 1.12 1.12 96 1009.3
20260509233749 11 104 0.0 0.0 0.00 1.12 1.12 96 1009.3
20260509233246 12 97 0.0 0.0 0.00 1.12 1.12 96 1009.0
20260509232742 12 100 0.0 0.0 0.00 1.12 1.12 96 1009.0
20260509232239 12 99 0.0 0.0 0.00 1.12 1.12 96 1009.0
20260509231735 12 112 0.0 0.0 0.00 1.12 1.12 96 1008.6
20260509231233 12 100 0.0 0.0 0.00 1.12 1.12 96 1009.0
20260509230730 12 96 0.0 3.2 0.00 1.12 1.12 96 1009.0
20260509230227 12 81 0.0 0.0 0.00 1.12 1.12 96 1009.0
20260509225722 12 110 0.0 0.0 0.00 1.12 1.12 97 1008.6
20260509225218 12 108 0.0 0.0 0.00 1.12 1.12 97 1008.6
20260509224714 12 109 0.0 0.0 0.00 1.12 1.12 97 1008.6
20260509224211 12 161 0.0 3.2 0.00 1.12 1.12 97 1009.0
20260509223708 12 97 0.0 0.0 0.00 1.12 1.12 97 1009.0
20260509223205 12 101 0.0 0.0 0.00 1.12 1.12 97 1009.0
20260509222702 12 124 0.0 3.2 0.00 1.12 1.12 97 1009.0
20260509222157 13 91 0.0 0.0 0.00 1.12 1.12 97 1009.0
20260509221648 12 120 0.0 0.0 0.00 1.12 1.12 98 1009.3
20260509221144 12 98 0.0 0.0 0.00 1.12 1.12 98 1009.0
20260509220640 12 102 0.0 0.0 0.00 1.12 1.12 98 1009.0
20260509220136 12 115 0.0 0.0 0.00 1.12 1.12 98 1009.0
20260509215632 12 127 0.0 3.2 0.00 1.12 1.12 98 1009.0
20260509215129 12 134 1.6 3.2 0.00 1.12 1.12 98 1009.0
20260509214626 12 104 0.0 0.0 0.00 1.12 1.12 98 1009.0
20260509214123 12 119 1.6 3.2 0.00 1.12 1.12 98 1009.3
20260509213619 12 104 0.0 0.0 0.00 1.12 1.12 98 1009.3
20260509213116 12 120 0.0 0.0 0.00 1.12 1.12 98 1009.0
20260509212613 12 109 0.0 0.0 0.00 1.12 1.12 98 1009.3
20260509212110 12 128 0.0 0.0 0.00 1.12 1.12 98 1009.3
20260509211606 12 104 0.0 0.0 0.00 1.12 1.12 98 1009.3
20260509211102 12 99 0.0 0.0 0.00 1.12 1.12 98 1009.3
20260509210559 12 137 0.0 0.0 0.00 1.12 1.12 98 1009.0
20260509210056 12 107 0.0 0.0 0.00 1.12 1.12 98 1009.3
20260509205550 12 99 0.0 0.0 0.00 1.12 1.12 98 1009.3
20260509205045 12 105 0.0 0.0 0.00 1.12 1.12 98 1009.7
20260509204542 12 119 1.6 3.2 0.00 1.12 1.12 98 1009.7
20260509204038 12 86 1.6 3.2 0.00 1.12 1.12 98 1009.7
20260509203534 11 104 0.0 0.0 0.00 1.12 1.12 98 1009.7
20260509203033 11 101 0.0 0.0 0.00 1.12 1.12 98 1009.7
20260509202527 11 97 0.0 0.0 0.00 1.12 1.12 98 1009.7
20260509202023 11 88 0.0 0.0 0.00 1.12 1.12 98 1009.7
20260509201518 11 85 0.0 0.0 0.00 1.12 1.12 98 1009.7
20260509201016 11 101 0.0 3.2 0.00 1.12 1.12 98 1010.0
20260509200515 11 86 0.0 0.0 0.00 1.12 1.12 98 1010.0
20260509200013 11 106 0.0 0.0 0.03 1.12 1.12 98 1010.0
20260509195508 11 102 0.0 0.0 0.03 1.12 1.12 98 1010.3
20260509195008 11 110 0.0 0.0 0.03 1.12 1.12 98 1010.3
20260509194504 11 101 0.0 0.0 0.03 1.12 1.12 98 1010.3
20260509194001 11 107 0.0 0.0 0.03 1.12 1.12 98 1010.7
20260509193500 10 104 0.0 0.0 0.03 1.12 1.12 98 1010.3
20260509192957 10 102 0.0 0.0 0.00 1.09 1.09 98 1010.7
20260509192454 10 103 0.0 0.0 0.00 1.09 1.09 98 1010.3
20260509191948 10 103 0.0 0.0 0.00 1.09 1.09 98 1010.7
20260509191444 10 104 0.0 0.0 0.00 1.09 1.09 98 1010.7
20260509190940 10 105 0.0 0.0 0.00 1.09 1.09 98 1010.7
20260509190437 10 101 0.0 0.0 0.00 1.09 1.09 97 1010.7
20260509185935 10 103 0.0 0.0 0.08 1.07 1.07 98 1010.7
20260509185432 10 107 0.0 0.0 0.08 1.07 1.07 97 1011.0
20260509184929 10 110 0.0 0.0 0.05 1.04 1.04 97 1011.0
20260509184427 10 102 0.0 0.0 0.05 1.04 1.04 97 1010.7
20260509183923 10 107 0.0 0.0 0.05 1.04 1.04 97 1011.0
20260509183417 10 102 0.0 0.0 0.03 1.02 1.02 97 1011.0
20260509182914 10 107 0.0 0.0 0.03 1.02 1.02 97 1011.0
20260509182411 10 103 0.0 0.0 0.03 1.02 1.02 97 1011.0
20260509181908 10 104 0.0 0.0 0.03 1.02 1.02 97 1011.0
20260509181406 10 128 0.0 0.0 0.03 1.02 1.02 97 1010.7
20260509180903 10 105 0.0 0.0 0.00 0.99 0.99 97 1011.0
20260509180358 10 102 0.0 0.0 0.00 0.99 0.99 97 1011.0
20260509175855 10 93 0.0 0.0 0.05 0.99 0.99 97 1011.0
20260509175351 10 92 0.0 0.0 0.05 0.99 0.99 97 1010.7
20260509174848 10 111 0.0 0.0 0.05 0.99 0.99 97 1011.0
20260509174344 10 104 0.0 0.0 0.03 0.97 0.97 97 1011.0
20260509173840 10 110 0.0 3.2 0.03 0.97 0.97 97 1011.0
20260509173335 9 99 0.0 0.0 0.03 0.97 0.97 97 1011.0
20260509172831 9 107 0.0 0.0 0.03 0.97 0.97 97 1011.4
20260509172328 9 103 0.0 0.0 0.03 0.97 0.97 97 1011.4
20260509171824 9 91 0.0 0.0 0.03 0.97 0.97 97 1011.4
20260509171320 9 102 0.0 0.0 0.03 0.97 0.97 97 1011.4
20260509170817 9 105 0.0 0.0 0.03 0.97 0.97 97 1011.4
20260509170312 9 107 0.0 0.0 0.00 0.94 0.94 97 1011.4
20260509165812 9 92 0.0 0.0 0.05 0.94 0.94 97 1011.4
20260509165307 9 95 0.0 0.0 0.05 0.94 0.94 97 1011.7
20260509164803 9 98 0.0 0.0 0.05 0.94 0.94 97 1011.7
20260509164300 8 105 0.0 0.0 0.05 0.94 0.94 97 1011.7
20260509163756 8 112 0.0 0.0 0.05 0.94 0.94 97 1011.4
20260509163253 8 100 0.0 0.0 0.05 0.94 0.94 97 1011.7
20260509162752 8 101 0.0 0.0 0.03 0.91 0.91 97 1011.7
20260509162245 8 100 0.0 0.0 0.03 0.91 0.91 97 1011.7
20260509161742 8 104 0.0 0.0 0.03 0.91 0.91 97 1011.7
20260509161238 8 106 0.0 0.0 0.03 0.91 0.91 97 1012.0
20260509160733 8 106 0.0 0.0 0.03 0.91 0.91 97 1012.0
20260509160230 8 124 0.0 0.0 0.00 0.89 0.89 97 1012.0
20260509155724 8 112 0.0 0.0 0.13 0.89 0.89 97 1012.4
20260509155221 8 119 0.0 0.0 0.13 0.89 0.89 97 1012.4
20260509154717 8 121 0.0 3.2 0.10 0.86 0.86 97 1012.4
20260509154215 8 112 0.0 0.0 0.10 0.86 0.86 97 1012.4
20260509153712 8 107 0.0 0.0 0.10 0.86 0.86 97 1012.7
20260509153208 8 99 0.0 0.0 0.08 0.84 0.84 97 1012.7
20260509152704 8 106 0.0 0.0 0.08 0.84 0.84 96 1012.7
20260509152201 8 94 0.0 3.2 0.08 0.84 0.84 96 1012.7
20260509151658 8 104 0.0 0.0 0.05 0.81 0.81 97 1013.0
20260509151155 8 105 0.0 0.0 0.05 0.81 0.81 96 1013.0
20260509150653 8 108 0.0 0.0 0.03 0.79 0.79 96 1013.0
20260509150151 8 111 0.0 0.0 0.03 0.79 0.79 96 1013.0
20260509145647 8 110 0.0 0.0 0.25 0.76 0.76 96 1013.0
20260509145142 7 127 0.0 0.0 0.23 0.74 0.74 96 1013.0
20260509144639 7 100 0.0 0.0 0.20 0.71 0.71 96 1013.0
20260509144136 7 102 0.0 0.0 0.18 0.69 0.69 96 1013.0
20260509143633 7 110 0.0 0.0 0.18 0.69 0.69 96 1013.0
20260509143131 7 102 0.0 0.0 0.15 0.66 0.66 96 1012.7
20260509142626 7 107 0.0 0.0 0.13 0.64 0.64 96 1013.0
20260509142123 7 106 0.0 0.0 0.10 0.61 0.61 96 1013.0
20260509141619 7 105 0.0 0.0 0.05 0.56 0.56 96 1013.0
20260509141115 7 100 0.0 0.0 0.03 0.53 0.53 96 1013.0
20260509140612 7 103 0.0 0.0 0.03 0.53 0.53 96 1012.7
20260509140110 7 99 0.0 0.0 0.00 0.51 0.51 96 1012.7
20260509135607 7 110 0.0 0.0 0.13 0.48 0.48 96 1012.7
20260509135105 7 110 0.0 0.0 0.10 0.46 0.46 96 1013.0
20260509134601 7 103 0.0 0.0 0.08 0.43 0.43 96 1012.7
20260509134059 7 104 0.0 0.0 0.08 0.43 0.43 96 1012.7
20260509133556 7 101 0.0 0.0 0.05 0.41 0.41 95 1012.7
20260509133053 7 95 0.0 0.0 0.03 0.38 0.38 95 1013.0
20260509132551 7 107 0.0 0.0 0.00 0.36 0.36 95 1013.0
20260509132049 7 109 0.0 0.0 0.00 0.36 0.36 95 1012.7
20260509131545 7 109 0.0 0.0 0.00 0.36 0.36 95 1012.7
20260509131042 7 101 0.0 0.0 0.00 0.36 0.36 95 1012.7
20260509130537 7 110 0.0 0.0 0.00 0.36 0.36 95 1012.7
20260509130035 7 100 0.0 0.0 0.23 0.36 0.36 95 1012.7
20260509125531 7 106 0.0 0.0 0.23 0.36 0.36 95 1012.7
20260509125028 7 104 0.0 0.0 0.23 0.36 0.36 95 1012.7
20260509124524 7 99 0.0 0.0 0.20 0.33 0.33 95 1012.7
20260509124022 7 111 0.0 0.0 0.20 0.33 0.33 95 1013.0
20260509123520 7 102 0.0 0.0 0.18 0.30 0.30 95 1013.0
20260509123016 7 105 0.0 0.0 0.15 0.28 0.28 95 1013.4
20260509122512 7 113 0.0 0.0 0.13 0.25 0.25 95 1013.0
20260509122009 7 108 0.0 0.0 0.10 0.23 0.23 95 1013.0
20260509121506 7 96 0.0 0.0 0.08 0.20 0.20 95 1013.0
20260509121004 7 117 0.0 0.0 0.05 0.18 0.18 94 1013.0
20260509120502 6 102 0.0 0.0 0.03 0.15 0.15 94 1013.0
20260509115959 6 101 0.0 0.0 0.08 0.13 0.13 94 1013.0
20260509115456 6 91 0.0 0.0 0.08 0.13 0.13 94 1013.4
20260509114954 6 109 0.0 0.0 0.05 0.10 0.10 94 1013.0
20260509114452 6 126 0.0 3.2 0.05 0.10 0.10 94 1013.0
20260509113951 6 100 0.0 0.0 0.05 0.10 0.10 94 1013.0
20260509113448 6 107 0.0 0.0 0.03 0.08 0.08 94 1013.0
20260509112945 6 106 0.0 0.0 0.03 0.08 0.08 94 1013.0
20260509112443 6 105 0.0 0.0 0.03 0.08 0.08 94 1013.0
20260509111938 6 107 0.0 0.0 0.03 0.08 0.08 94 1013.0
20260509111437 6 105 0.0 0.0 0.03 0.08 0.08 93 1013.4
20260509110934 6 109 0.0 0.0 0.03 0.08 0.08 93 1013.0
20260509110429 6 103 0.0 0.0 0.03 0.08 0.08 93 1013.4
20260509105928 6 100 0.0 0.0 0.00 0.05 0.05 93 1013.4
20260509105426 6 101 0.0 0.0 0.00 0.05 0.05 93 1013.0
20260509104923 6 103 0.0 0.0 0.00 0.05 0.05 93 1013.0
20260509104420 6 105 0.0 0.0 0.00 0.05 0.05 93 1013.0
20260509103917 6 105 0.0 0.0 0.00 0.05 0.05 93 1013.0
20260509103414 6 108 0.0 0.0 0.00 0.05 0.05 92 1013.0
20260509102912 6 111 0.0 0.0 0.00 0.05 0.05 92 1013.4
20260509102409 6 109 0.0 0.0 0.00 0.05 0.05 92 1013.0
20260509101905 6 105 0.0 0.0 0.00 0.05 0.05 92 1013.0
20260509101401 6 103 0.0 0.0 0.00 0.05 0.05 92 1013.4
20260509100859 6 102 0.0 0.0 0.00 0.05 0.05 92 1013.4
20260509100356 6 108 0.0 0.0 0.00 0.05 0.05 92 1013.4
20260509095853 6 105 0.0 0.0 0.05 0.05 0.05 92 1013.4
20260509095350 6 105 0.0 0.0 0.05 0.05 0.05 91 1013.0
20260509094847 6 105 0.0 0.0 0.05 0.05 0.05 91 1013.4
20260509094344 6 105 0.0 0.0 0.05 0.05 0.05 91 1013.4
20260509093842 6 106 0.0 0.0 0.05 0.05 0.05 90 1013.0
20260509093338 6 107 0.0 0.0 0.05 0.05 0.05 90 1013.4
20260509092837 6 105 0.0 0.0 0.03 0.03 0.03 89 1013.4
20260509092334 6 106 0.0 0.0 0.03 0.03 0.03 89 1013.4
20260509091832 6 106 0.0 0.0 0.03 0.03 0.03 89 1013.4
20260509091329 6 106 0.0 0.0 0.03 0.03 0.03 88 1013.4
20260509090826 6 108 0.0 0.0 0.03 0.03 0.03 87 1013.8
20260509090323 6 108 0.0 0.0 0.03 0.03 0.03 87 1013.4
20260509085821 6 107 0.0 0.0 0.00 0.00 0.00 86 1013.4
20260509085318 6 108 0.0 0.0 0.00 0.00 0.00 86 1013.4
20260509084814 6 109 0.0 0.0 0.00 0.00 0.00 85 1013.4
20260509084311 6 121 0.0 0.0 0.00 0.00 0.00 85 1013.4
20260509083809 6 95 0.0 0.0 0.00 0.00 0.00 84 1013.8
20260509083306 6 109 0.0 0.0 0.00 0.00 0.00 84 1013.4
20260509082802 6 106 0.0 0.0 0.00 0.00 0.00 85 1013.4
20260509082259 6 105 0.0 0.0 0.00 0.00 0.00 85 1013.8
20260509081756 6 101 0.0 0.0 0.00 0.00 0.00 85 1013.8
20260509081253 6 101 0.0 0.0 0.00 0.00 0.00 86 1013.4
20260509080751 5 101 0.0 0.0 0.00 0.00 0.00 86 1013.4
20260509080249 5 100 0.0 0.0 0.00 0.00 0.00 86 1013.4
20260509075747 5 100 0.0 0.0 0.00 0.00 0.00 87 1013.4
20260509075244 5 96 0.0 0.0 0.00 0.00 0.00 87 1013.0
20260509074741 5 105 0.0 0.0 0.00 0.00 0.00 87 1013.0
20260509074239 5 105 0.0 0.0 0.00 0.00 0.00 87 1013.0
20260509073734 5 105 0.0 0.0 0.00 0.00 0.00 87 1013.0
20260509073231 5 105 0.0 0.0 0.00 0.00 0.00 87 1012.7
20260509072727 5 105 0.0 0.0 0.00 0.00 0.00 87 1013.0
20260509072224 5 105 0.0 0.0 0.00 0.00 0.00 87 1013.0
20260509071721 5 105 0.0 0.0 0.00 0.00 0.00 87 1012.7
20260509071219 5 105 0.0 0.0 0.00 0.00 0.00 87 1012.7
20260509070715 5 106 0.0 0.0 0.00 0.00 0.00 87 1012.4
20260509070212 5 105 0.0 0.0 0.00 0.00 0.00 87 1012.7
20260509065708 5 105 0.0 0.0 0.00 0.00 0.00 87 1013.0
20260509065204 5 104 0.0 0.0 0.00 0.00 0.00 86 1013.0
20260509064701 5 105 0.0 0.0 0.00 0.00 0.00 86 1013.0
20260509064159 5 105 0.0 0.0 0.00 0.00 0.00 86 1013.0
20260509063656 5 105 0.0 0.0 0.00 0.00 0.00 86 1013.0
20260509063152 5 103 0.0 0.0 0.00 0.00 0.00 85 1013.0
20260509062649 5 102 0.0 0.0 0.00 0.00 0.00 85 1012.7
20260509062146 5 105 0.0 0.0 0.00 0.00 0.00 85 1013.0
20260509061643 5 105 0.0 0.0 0.00 0.00 0.00 85 1013.4
20260509061141 5 105 0.0 0.0 0.00 0.00 0.00 84 1013.4
20260509060638 5 105 0.0 0.0 0.00 0.00 0.00 84 1013.4
20260509060134 5 105 0.0 0.0 0.00 0.00 0.00 83 1013.0
20260509055630 5 105 0.0 0.0 0.00 0.00 0.00 83 1013.4
20260509055126 5 106 0.0 0.0 0.00 0.00 0.00 83 1013.4
20260509054623 6 105 0.0 0.0 0.00 0.00 0.00 82 1013.4
20260509054120 6 105 0.0 0.0 0.00 0.00 0.00 81 1013.4
20260509053619 6 106 0.0 0.0 0.00 0.00 0.00 81 1013.4
20260509053115 6 106 0.0 0.0 0.00 0.00 0.00 80 1013.4
20260509052613 6 105 0.0 0.0 0.00 0.00 0.00 80 1013.8
20260509052111 6 108 0.0 0.0 0.00 0.00 0.00 80 1013.4